[[{"header":{"parameterUnit":"m.s-1","parameterCategory":1,"la1":30.2992,"la2":30.254,"lo1":-89.0895,"lo2":-89.0443,"dy":0.0025,"dx":0.0025,"nx":19,"ny":19,"refTime":"2026-03-11T21:00:00:Z","depth":0,"parameterNumber":2,"parameterNumberName":"U-component_of_WINDS"},"data":[0,0,0,-1.2219,-1.2219,-1.224,-1.2241,-1.2274,-1.2274,0,0,0,0,0,0,0,0,0,0,0,-1.2216,-1.2216,-1.2219,-1.2219,-1.224,-1.2241,-1.2274,-1.2274,0,0,0,0,0,0,0,0,0,0,0,-1.2216,-1.2216,-1.2217,-1.2219,-1.224,-1.2241,-1.2274,-1.2256,0,0,0,0,0,0,0,0,0,0,-1.2234,-1.2235,-1.2216,-1.2217,-1.2219,-1.224,-1.2241,-1.2255,-1.2257,-1.2267,0,-1.2276,0,-1.2276,-1.2277,-1.2277,0,0,0,-1.2217,-1.2233,-1.2235,-1.2217,-1.222,-1.224,-1.223,-1.2256,-1.2258,-1.227,-1.2277,-1.2278,-1.2276,-1.2277,-1.2277,-1.2342,-1.2342,0,0,-1.2216,-1.2222,-1.2234,-1.2237,-1.2234,-1.223,-1.2231,-1.2257,-1.2266,-1.2277,-1.2279,-1.2277,-1.2277,-1.2278,-1.2341,-1.2342,0,0,0,-1.2214,-1.2221,-1.2223,-1.2236,-1.2239,-1.223,-1.2232,-1.2264,-1.2264,-1.2279,-1.2277,-1.2277,-1.2278,-1.2341,-1.2342,-1.2368,0,0,0,-1.2213,-1.222,-1.2222,-1.2227,-1.2239,-1.2252,-1.2239,-1.2263,-1.2265,-1.2277,-1.2277,-1.2278,-1.234,-1.2341,-1.2366,-1.238,0,0,0,-1.2213,-1.222,-1.2224,-1.2227,-1.2236,-1.2252,-1.2253,-1.2263,-1.2264,-1.2277,-1.2278,-1.234,-1.2341,-1.2365,-1.2378,-1.2399,0,0,0,-1.2216,-1.2249,-1.2225,-1.2261,-1.2236,-1.2267,-1.2253,-1.2276,-1.229,-1.2278,-1.234,-1.2341,-1.2364,-1.2376,-1.2397,-1.2418,-1.2427,0,0,-1.2261,-1.2254,-1.2275,-1.2254,-1.2292,-1.2264,-1.2305,-1.2312,-1.2308,-1.2331,-1.2332,-1.2367,-1.2377,-1.2398,-1.2476,-1.2483,0,0,0,-1.2291,-1.2306,-1.2315,-1.2328,-1.2333,-1.2339,-1.2338,-1.2341,-1.2359,-1.2321,-1.238,-1.2386,-1.2398,-1.2408,-1.2414,-1.2424,-1.2346,-1.2346,-1.2346,-1.2366,-1.2357,-1.239,-1.2384,-1.2396,-1.2395,-1.2404,-1.2407,-1.2396,-1.241,-1.2417,-1.2465,-1.2476,-1.2481,-1.2491,-1.2427,-1.2427,-1.2427,-1.2427,-1.2431,-1.2451,-1.2433,-1.2459,-1.245,-1.2471,-1.247,-1.2461,-1.248,-1.2459,-1.2469,-1.2447,-1.2489,-1.2498,-1.2429,-1.2429,-1.2428,-1.2428,-1.2428,-1.248,-1.2488,-1.2489,-1.2505,-1.2519,-1.2511,-1.2529,-1.252,-1.2512,-1.2522,-1.2528,-1.2528,-1.2526,-1.2525,-1.2525,-1.2525,-1.2526,-1.2526,-1.2526,-1.253,-1.253,-1.2547,-1.2553,-1.2559,-1.2566,-1.2564,-1.257,-1.2574,-1.2566,-1.2566,-1.2553,-1.2494,-1.248,-1.2528,-1.2528,-1.2528,-1.2527,-1.2527,-1.2602,-1.2583,-1.2609,-1.2615,-1.2621,-1.2635,-1.2622,-1.2634,-1.2637,-1.2647,-1.2631,-1.2589,-1.2582,-1.2577,-1.2565,-1.2632,-1.2632,-1.2632,-1.2632,-1.2643,-1.2638,-1.2661,-1.2671,-1.2679,-1.2669,-1.2698,-1.2695,-1.269,-1.2691,-1.268,-1.2663,-1.2658,-1.2654,-1.2648,-1.2637,-1.272,-1.272,-1.272,-1.2686,-1.2681,-1.2708,-1.2701,-1.2704,-1.2708,-1.2734,-1.2746,-1.2736,-1.2724,-1.2692,-1.2688,-1.2661,-1.2653,-1.2642,-1.2631,-1.2611,0,0]},{"header":{"parameterUnit":"m.s-1","parameterCategory":1,"la1":30.2992,"la2":30.254,"lo1":-89.0895,"lo2":-89.0443,"dy":0.0025,"dx":0.0025,"nx":19,"ny":19,"refTime":"2026-03-11T21:00:00:Z","depth":0,"parameterNumber":3,"parameterNumberName":"V-component_of_WINDS"},"data":[0,0,0,-8.4007,-8.401,-8.416,-8.416,-8.4356,-8.4358,0,0,0,0,0,0,0,0,0,0,0,-8.3969,-8.397,-8.4007,-8.4011,-8.4159,-8.416,-8.4355,-8.4358,0,0,0,0,0,0,0,0,0,0,0,-8.3968,-8.397,-8.3972,-8.4011,-8.4159,-8.416,-8.4355,-8.424,0,0,0,0,0,0,0,0,0,0,-8.4094,-8.4065,-8.3969,-8.3972,-8.4012,-8.4159,-8.416,-8.4234,-8.4247,-8.4291,0,-8.4335,0,-8.435,-8.4371,-8.4372,0,0,0,-8.4005,-8.4054,-8.409,-8.3972,-8.4014,-8.4159,-8.4091,-8.4241,-8.4256,-8.4308,-8.4337,-8.4344,-8.4353,-8.4373,-8.4374,-8.4655,-8.4657,0,0,-8.3997,-8.3998,-8.408,-8.41,-8.408,-8.4086,-8.4096,-8.425,-8.428,-8.4338,-8.4349,-8.4356,-8.4374,-8.4375,-8.4654,-8.4656,0,0,0,-8.3977,-8.3992,-8.4024,-8.4092,-8.4118,-8.4091,-8.4101,-8.4273,-8.4284,-8.4351,-8.4358,-8.4375,-8.4378,-8.4652,-8.4654,-8.4735,0,0,0,-8.3972,-8.398,-8.402,-8.4022,-8.4116,-8.4198,-8.4121,-8.4273,-8.4291,-8.4357,-8.4375,-8.438,-8.465,-8.4653,-8.4729,-8.4772,0,0,0,-8.3957,-8.3978,-8.4003,-8.4022,-8.4086,-8.4196,-8.4215,-8.4277,-8.4296,-8.4372,-8.438,-8.4649,-8.4653,-8.4724,-8.4763,-8.4848,0,0,0,-8.394,-8.4068,-8.4004,-8.415,-8.4085,-8.4246,-8.4214,-8.4332,-8.4408,-8.4376,-8.4651,-8.4654,-8.4722,-8.4758,-8.4843,-8.4921,-8.4953,0,0,-8.4102,-8.4088,-8.4174,-8.4121,-8.4294,-8.4223,-8.4406,-8.4472,-8.4476,-8.4595,-8.4602,-8.4731,-8.4763,-8.4847,-8.5133,-8.5159,0,0,0,-8.4226,-8.4288,-8.4334,-8.4408,-8.4465,-8.4516,-8.4555,-8.458,-8.4681,-8.4539,-8.4784,-8.4803,-8.4852,-8.4889,-8.4911,-8.4954,-8.4671,-8.4671,-8.467,-8.4455,-8.4458,-8.4602,-8.4624,-8.4696,-8.4737,-8.4795,-8.4835,-8.4813,-8.4872,-8.4907,-8.5081,-8.5124,-8.5141,-8.5186,-8.4948,-8.4948,-8.4948,-8.4948,-8.4694,-8.4783,-8.4757,-8.4887,-8.4889,-8.4997,-8.5042,-8.5024,-8.5123,-8.5054,-8.5097,-8.5021,-8.5169,-8.5208,-8.4954,-8.4953,-8.4953,-8.4952,-8.4952,-8.4845,-8.4889,-8.492,-8.503,-8.5114,-8.513,-8.5229,-8.5226,-8.5223,-8.5266,-8.5304,-8.5303,-8.5302,-8.5285,-8.5285,-8.5286,-8.5287,-8.5287,-8.5287,-8.4989,-8.5022,-8.5108,-8.5182,-8.5231,-8.5295,-8.534,-8.5386,-8.5437,-8.5427,-8.5427,-8.5401,-8.5184,-8.513,-8.5297,-8.5295,-8.5294,-8.5293,-8.5292,-8.5231,-8.5177,-8.531,-8.536,-8.5448,-8.5532,-8.5528,-8.5625,-8.5663,-8.5712,-8.5678,-8.5518,-8.5501,-8.5484,-8.5439,-8.5676,-8.5676,-8.5676,-8.5676,-8.5359,-8.5352,-8.5489,-8.5569,-8.5647,-8.5658,-8.5807,-8.5844,-8.5872,-8.5895,-8.5861,-8.5801,-8.5783,-8.5777,-8.5754,-8.5712,-8.6013,-8.6014,-8.6014,-8.5509,-8.551,-8.5639,-8.567,-8.574,-8.5799,-8.5939,-8.603,-8.605,-8.6028,-8.5914,-8.59,-8.5804,-8.5772,-8.5746,-8.5709,-8.5632,0,0]}]]